Ambler, AK

11:35 AM AKDT on July 22, 2017 (GMT -0800)
Ambler

Weather History for PAFM - November, 2012

Change the Weather History Date:

Tuesday, November 27, 2012

  Actual Average Record
Temperature  
Mean Temperature 2 °F -  
Max Temperature 12 °F 6 °F 33 °F (2002)
Min Temperature -7 °F 0 °F -49 °F (1986)
Degree Days  
Heating Degree Days 62    
Moisture  
Dew Point -3 °F    
Average Humidity 67    
Maximum Humidity 92    
Minimum Humidity 54    
Precipitation  
Precipitation 0.00 in - - ()
Sea Level Pressure  
Sea Level Pressure 30.25 in    
Wind  
Wind Speed 4 mph (NNE)    
Max Wind Speed 8 mph    
Max Gust Speed -    
Visibility 10 miles    
Events      
Averages and records for this station are not official NWS values.
T = Trace of Precipitation, MM = Missing Value Source: NWS Daily Summary

Daily Weather History Graph

Daily Weather History Graph

Search for Another Location

Airport or City:

Trip Planner

Search our weather history database for the weather conditions in past years. The results will help you decide how hot, cold, wet, or windy it might be!

Date:

Astronomy

Nov. 27, 2012 Rise Set
Actual Time 11:27 AM AKST 3:10 PM AKST
Civil Twilight 9:56 AM AKST 4:41 PM AKST
Nautical Twilight 8:40 AM AKST 5:56 PM AKST
Astronomical Twilight 7:35 AM AKST 7:02 PM AKST
Moon 3:01 PM AKST (11/27) 10:28 AM AKST (11/27)
Length of Visible Light 6h 44m
Length of Day
3h 42m
Full, 100% of the Moon is Illuminated
Nov 27
Full
Nov 28
Full
Dec 6
Last Quarter
Dec 12
New
Dec 19
First Quarter

Hourly Weather History & Observations

Time (AKST) Temp. Windchill Dew Point Humidity Pressure Visibility Wind Dir Wind Speed Gust Speed Precip Events Conditions
12:16 AM -2.2 °F - -9.4 °F 71% 30.15 in 10.0 mi Calm Calm - N/A   Clear
12:36 AM -7.6 °F - -20.2 °F 54% 30.15 in 10.0 mi Calm Calm - N/A   Clear
12:56 AM -5.8 °F -16.7 °F -7.6 °F 92% 30.14 in 10.0 mi NE 4.6 mph - N/A   Clear
1:16 AM -4.0 °F - -14.8 °F 60% 30.14 in 10.0 mi Calm Calm - N/A   Clear
1:36 AM -2.2 °F - -9.4 °F 71% 30.15 in 10.0 mi Calm Calm - N/A   Clear
1:56 AM -2.2 °F - -7.6 °F 78% 30.15 in 10.0 mi Calm Calm - N/A   Clear
2:16 AM -0.4 °F -8.3 °F -5.8 °F 78% 30.14 in 10.0 mi East 3.5 mph - N/A   Clear
2:36 AM -2.2 °F -12.5 °F -13.0 °F 60% 30.14 in 10.0 mi NE 4.6 mph - N/A   Clear
2:56 AM -2.2 °F -10.4 °F -7.6 °F 78% 30.14 in 10.0 mi NE 3.5 mph - N/A   Clear
3:16 AM -0.4 °F -8.3 °F -7.6 °F 72% 30.14 in 10.0 mi NE 3.5 mph - N/A   Clear
3:36 AM -2.2 °F -12.5 °F -9.4 °F 71% 30.14 in 10.0 mi ENE 4.6 mph - N/A   Clear
3:56 AM -2.2 °F -12.5 °F -7.6 °F 78% 30.14 in 10.0 mi NE 4.6 mph - N/A   Clear
4:16 AM -0.4 °F -10.4 °F -9.4 °F 66% 30.15 in 10.0 mi NE 4.6 mph - N/A   Clear
4:36 AM -0.4 °F -10.4 °F -5.8 °F 78% 30.15 in 10.0 mi NNE 4.6 mph - N/A   Clear
4:56 AM 1.4 °F - -5.8 °F 72% 30.15 in 10.0 mi Calm Calm - N/A   Clear
5:16 AM 5.0 °F -8.1 °F -0.4 °F 78% 30.15 in 10.0 mi NNE 8.1 mph - N/A   Clear
5:36 AM 6.8 °F -5.9 °F -0.4 °F 72% 30.15 in 10.0 mi NNE 8.1 mph - N/A   Clear
5:56 AM 6.8 °F -3.5 °F -4.0 °F 61% 30.15 in 10.0 mi NNE 5.8 mph - N/A   Clear
6:16 AM 6.8 °F -5.9 °F -0.4 °F 72% 30.15 in 10.0 mi NNE 8.1 mph - N/A   Clear
6:36 AM 6.8 °F -3.5 °F -2.2 °F 67% 30.15 in 10.0 mi NNE 5.8 mph - N/A   Clear
6:56 AM 8.6 °F -1.3 °F -0.4 °F 67% 30.16 in 10.0 mi NNE 5.8 mph - N/A   Clear
7:36 AM 6.8 °F -3.5 °F -0.4 °F 72% 30.17 in 10.0 mi NNE 5.8 mph - N/A   Clear
7:56 AM 6.8 °F -3.5 °F -4.0 °F 61% 30.18 in 10.0 mi NNE 5.8 mph - N/A   Clear
8:16 AM 8.6 °F -3.7 °F 3.2 °F 79% 30.18 in 10.0 mi North 8.1 mph - N/A   Clear
8:36 AM 8.6 °F -1.3 °F -0.4 °F 67% 30.19 in 10.0 mi NNE 5.8 mph - N/A   Clear
8:56 AM 8.6 °F - -0.4 °F 67% 30.19 in 10.0 mi Calm Calm - N/A   Clear
9:16 AM 5.0 °F -2.1 °F -5.8 °F 61% 30.21 in 10.0 mi ENE 3.5 mph - N/A   Clear
9:36 AM 5.0 °F -5.6 °F -2.2 °F 72% 30.22 in 10.0 mi NE 5.8 mph - N/A   Clear
9:56 AM 5.0 °F - -2.2 °F 72% 30.22 in 10.0 mi Calm Calm - N/A   Clear
10:16 AM 6.8 °F -2.0 °F -4.0 °F 61% 30.22 in 10.0 mi NNE 4.6 mph - N/A   Clear
10:36 AM 6.8 °F -3.5 °F -4.0 °F 61% 30.23 in 10.0 mi NE 5.8 mph - N/A   Clear
10:56 AM 3.2 °F -9.1 °F -5.8 °F 66% 30.24 in 10.0 mi NNE 6.9 mph - N/A   Clear
11:16 AM 3.2 °F -9.1 °F -4.0 °F 72% 30.24 in 10.0 mi North 6.9 mph - N/A   Clear
11:36 AM 8.6 °F -1.3 °F 1.4 °F 73% 30.24 in 10.0 mi NNE 5.8 mph - N/A   Clear
11:56 AM 6.8 °F -2.0 °F -2.2 °F 67% 30.24 in 10.0 mi NNE 4.6 mph - N/A   Clear
12:16 PM 8.6 °F -1.3 °F 1.4 °F 73% 30.25 in 10.0 mi North 5.8 mph - N/A   Clear
12:36 PM 8.6 °F - -0.4 °F 67% 30.26 in 10.0 mi Calm Calm - N/A   Clear
12:56 PM 10.4 °F 4.0 °F 1.4 °F 67% 30.27 in 10.0 mi North 3.5 mph - N/A   Clear
1:16 PM 8.6 °F -1.3 °F -0.4 °F 67% 30.28 in 10.0 mi North 5.8 mph - N/A   Clear
1:36 PM 12.2 °F - 1.4 °F 62% 30.28 in 10.0 mi Calm Calm - N/A   Clear
1:56 PM 10.4 °F 4.0 °F -0.4 °F 62% 30.29 in 10.0 mi NE 3.5 mph - N/A   Clear
2:16 PM 8.6 °F 0.1 °F 1.4 °F 73% 30.29 in 10.0 mi North 4.6 mph - N/A   Clear
2:36 PM 8.6 °F 2.0 °F -2.2 °F 62% 30.29 in 10.0 mi NE 3.5 mph - N/A   Clear
2:56 PM 6.8 °F -2.0 °F -2.2 °F 67% 30.29 in 10.0 mi NE 4.6 mph - N/A   Clear
3:16 PM 6.8 °F -2.0 °F -0.4 °F 72% 30.29 in 10.0 mi NNE 4.6 mph - N/A   Clear
3:36 PM 8.6 °F -1.3 °F -0.4 °F 67% 30.29 in 10.0 mi NNE 5.8 mph - N/A   Clear
3:56 PM 8.6 °F -1.3 °F -0.4 °F 67% 30.29 in 10.0 mi NNE 5.8 mph - N/A   Clear
4:16 PM 8.6 °F -1.3 °F -0.4 °F 67% 30.30 in 10.0 mi North 5.8 mph - N/A   Clear
4:36 PM 8.6 °F 0.1 °F -0.4 °F 67% 30.30 in 10.0 mi North 4.6 mph - N/A   Clear
4:56 PM 8.6 °F 0.1 °F -0.4 °F 67% 30.31 in 10.0 mi NNE 4.6 mph - N/A   Clear
5:16 PM 8.6 °F -1.3 °F -2.2 °F 62% 30.32 in 10.0 mi North 5.8 mph - N/A   Clear
5:36 PM 8.6 °F -1.3 °F -2.2 °F 62% 30.32 in 10.0 mi North 5.8 mph - N/A   Clear
5:56 PM 8.6 °F -2.6 °F -0.4 °F 67% 30.32 in 10.0 mi North 6.9 mph - N/A   Clear
6:16 PM 8.6 °F -2.6 °F -0.4 °F 67% 30.32 in 10.0 mi NNE 6.9 mph - N/A   Clear
6:36 PM 8.6 °F 0.1 °F -2.2 °F 62% 30.33 in 10.0 mi NE 4.6 mph - N/A   Clear
6:56 PM 6.8 °F -3.5 °F -0.4 °F 72% 30.34 in 10.0 mi North 5.8 mph - N/A   Clear
7:16 PM 8.6 °F -1.3 °F -2.2 °F 62% 30.34 in 10.0 mi North 5.8 mph - N/A   Clear
7:36 PM 8.6 °F 0.1 °F -2.2 °F 62% 30.34 in 10.0 mi North 4.6 mph - N/A   Clear
7:56 PM 8.6 °F 2.0 °F -2.2 °F 62% 30.35 in 10.0 mi North 3.5 mph - N/A   Clear
8:16 PM 8.6 °F 2.0 °F -4.0 °F 57% 30.35 in 10.0 mi North 3.5 mph - N/A   Clear
8:36 PM 8.6 °F -2.6 °F -2.2 °F 62% 30.35 in 10.0 mi North 6.9 mph - N/A   Clear
8:56 PM 8.6 °F -1.3 °F -2.2 °F 62% 30.35 in 10.0 mi North 5.8 mph - N/A   Clear
9:16 PM 8.6 °F 0.1 °F -2.2 °F 62% 30.35 in 10.0 mi NNE 4.6 mph - N/A   Clear
9:36 PM 8.6 °F 0.1 °F -4.0 °F 57% 30.36 in 10.0 mi NNE 4.6 mph - N/A   Clear
9:56 PM 8.6 °F -1.3 °F -2.2 °F 62% 30.37 in 10.0 mi North 5.8 mph - N/A   Clear
10:16 PM 8.6 °F 0.1 °F -2.2 °F 62% 30.37 in 10.0 mi NNE 4.6 mph - N/A   Clear
10:36 PM 8.6 °F 0.1 °F -4.0 °F 57% 30.37 in 10.0 mi NNE 4.6 mph - N/A   Clear
10:56 PM 8.6 °F 0.1 °F -4.0 °F 57% 30.37 in 10.0 mi NNE 4.6 mph - N/A   Clear
11:16 PM 6.8 °F -2.0 °F -4.0 °F 61% 30.37 in 10.0 mi NE 4.6 mph - N/A   Clear
11:36 PM 6.8 °F -3.5 °F -4.0 °F 61% 30.38 in 10.0 mi NNE 5.8 mph - N/A   Clear
11:56 PM 6.8 °F -3.5 °F -4.0 °F 61% 30.39 in 10.0 mi North 5.8 mph - N/A   Clear